| time (UTC) | temp C | wind direction | speed KPH | gust KPH | rain 1hr cm | rain 24hr cm | rain mn cm | humidity % | barometer mb |
| 20260507192051 | 15 | 219 | 12.9 | 20.9 | 0.00 | 0.00 | 0.00 | 38 | 908.1 |
| 20260507191546 | 15 | 241 | 19.3 | 24.1 | 0.00 | 0.00 | 0.00 | 38 | 907.8 |
| 20260507191044 | 15 | 190 | 14.5 | 17.7 | 0.00 | 0.00 | 0.00 | 38 | 907.9 |
| 20260507190541 | 14 | 198 | 11.3 | 14.5 | 0.00 | 0.00 | 0.00 | 39 | 908.2 |
| 20260507190039 | 14 | 240 | 14.5 | 17.7 | 0.00 | 0.00 | 0.00 | 39 | 907.9 |
| 20260507185537 | 14 | 197 | 8.0 | 12.9 | 0.00 | 0.00 | 0.00 | 40 | 908.2 |
| 20260507185033 | 13 | 343 | 3.2 | 4.8 | 0.00 | 0.00 | 0.00 | 40 | 908.1 |
| 20260507184532 | 13 | 218 | 4.8 | 4.8 | 0.00 | 0.00 | 0.00 | 42 | 908.2 |
| 20260507184030 | 13 | 196 | 8.0 | 9.7 | 0.00 | 0.00 | 0.00 | 41 | 908.2 |
| 20260507183525 | 13 | 192 | 9.7 | 14.5 | 0.00 | 0.00 | 0.00 | 39 | 908.3 |
| 20260507183023 | 13 | 232 | 4.8 | 6.4 | 0.00 | 0.00 | 0.00 | 40 | 908.3 |
| 20260507182519 | 13 | 4 | 6.4 | 9.7 | 0.00 | 0.00 | 0.00 | 39 | 908.4 |
| 20260507182015 | 13 | 205 | 9.7 | 12.9 | 0.00 | 0.00 | 0.00 | 41 | 908.4 |
| 20260507181512 | 13 | 302 | 8.0 | 9.7 | 0.00 | 0.00 | 0.00 | 41 | 908.5 |
| 20260507181008 | 13 | 138 | 4.8 | 6.4 | 0.00 | 0.00 | 0.00 | 40 | 908.7 |
| 20260507180504 | 13 | 257 | 11.3 | 14.5 | 0.00 | 0.00 | 0.00 | 39 | 908.5 |
| 20260507180001 | 14 | 204 | 8.0 | 9.7 | 0.00 | 0.00 | 0.00 | 40 | 908.6 |
| 20260507175457 | 13 | 277 | 6.4 | 8.0 | 0.00 | 0.00 | 0.00 | 39 | 908.6 |
| 20260507174955 | 12 | 215 | 6.4 | 9.7 | 0.00 | 0.00 | 0.00 | 40 | 908.7 |
| 20260507174452 | 13 | 235 | 9.7 | 12.9 | 0.00 | 0.00 | 0.00 | 40 | 908.8 |
| 20260507173950 | 13 | 47 | 3.2 | 4.8 | 0.00 | 0.00 | 0.00 | 39 | 908.7 |
| 20260507173447 | 13 | 312 | 8.0 | 14.5 | 0.00 | 0.00 | 0.00 | 39 | 908.9 |
| 20260507172944 | 13 | 206 | 6.4 | 8.0 | 0.00 | 0.00 | 0.00 | 39 | 908.8 |
| 20260507172440 | 13 | 352 | 4.8 | 8.0 | 0.00 | 0.00 | 0.00 | 41 | 908.8 |
| 20260507171936 | 12 | 214 | 6.4 | 8.0 | 0.00 | 0.00 | 0.00 | 41 | 908.8 |
| 20260507171432 | 13 | 271 | 4.8 | 6.4 | 0.00 | 0.00 | 0.00 | 41 | 908.7 |
| 20260507170930 | 12 | 261 | 3.2 | 8.0 | 0.00 | 0.00 | 0.00 | 42 | 908.7 |
| 20260507170426 | 12 | 179 | 12.9 | 16.1 | 0.00 | 0.00 | 0.00 | 42 | 908.7 |
| 20260507165923 | 12 | 219 | 6.4 | 9.7 | 0.00 | 0.00 | 0.00 | 41 | 908.6 |
| 20260507165419 | 12 | 246 | 8.0 | 12.9 | 0.00 | 0.00 | 0.00 | 43 | 908.4 |
| 20260507164914 | 12 | 9 | 3.2 | 6.4 | 0.00 | 0.00 | 0.00 | 43 | 908.6 |
| 20260507164412 | 12 | 321 | 8.0 | 12.9 | 0.00 | 0.00 | 0.00 | 42 | 908.9 |
| 20260507163909 | 12 | 216 | 16.1 | 20.9 | 0.00 | 0.00 | 0.00 | 42 | 908.8 |
| 20260507163406 | 12 | 50 | 4.8 | 9.7 | 0.00 | 0.00 | 0.00 | 42 | 908.8 |
| 20260507162903 | 11 | 158 | 9.7 | 12.9 | 0.00 | 0.00 | 0.00 | 42 | 908.8 |
| 20260507162358 | 11 | 266 | 8.0 | 9.7 | 0.00 | 0.00 | 0.00 | 43 | 908.8 |
| 20260507161856 | 11 | 264 | 4.8 | 6.4 | 0.00 | 0.00 | 0.00 | 45 | 908.9 |
| 20260507161352 | 10 | 217 | 4.8 | 8.0 | 0.00 | 0.00 | 0.00 | 44 | 908.9 |
| 20260507160849 | 10 | 267 | 4.8 | 6.4 | 0.00 | 0.00 | 0.00 | 46 | 909.0 |
| 20260507160344 | 10 | 348 | 4.8 | 4.8 | 0.00 | 0.00 | 0.00 | 45 | 908.9 |
| 20260507155841 | 10 | 256 | 1.6 | 1.6 | 0.00 | 0.00 | 0.00 | 47 | 908.6 |
| 20260507155336 | 10 | 253 | 4.8 | 8.0 | 0.00 | 0.00 | 0.00 | 47 | 908.8 |
| 20260507154833 | 10 | 338 | 6.4 | 8.0 | 0.00 | 0.00 | 0.00 | 47 | 908.9 |
| 20260507154331 | 9 | 308 | 4.8 | 8.0 | 0.00 | 0.00 | 0.00 | 48 | 909.0 |
| 20260507153828 | 9 | 338 | 3.2 | 4.8 | 0.00 | 0.00 | 0.00 | 48 | 909.4 |
| 20260507153324 | 10 | 299 | 4.8 | 6.4 | 0.00 | 0.00 | 0.00 | 46 | 909.5 |
| 20260507152821 | 10 | 335 | 8.0 | 9.7 | 0.00 | 0.00 | 0.00 | 45 | 909.4 |
| 20260507152317 | 10 | 307 | 3.2 | 4.8 | 0.00 | 0.00 | 0.00 | 45 | 909.5 |
| 20260507151813 | 10 | 339 | 9.7 | 14.5 | 0.00 | 0.00 | 0.00 | 45 | 909.5 |
| 20260507151309 | 10 | 340 | 3.2 | 8.0 | 0.00 | 0.00 | 0.00 | 45 | 909.6 |
| 20260507150806 | 10 | 294 | 9.7 | 16.1 | 0.00 | 0.00 | 0.00 | 45 | 909.6 |
| 20260507150303 | 9 | 310 | 8.0 | 12.9 | 0.00 | 0.00 | 0.00 | 46 | 909.1 |
| 20260507145759 | 9 | 274 | 4.8 | 8.0 | 0.00 | 0.00 | 0.00 | 46 | 909.4 |
| 20260507145256 | 8 | 257 | 4.8 | 6.4 | 0.00 | 0.00 | 0.00 | 47 | 909.0 |
| 20260507144753 | 8 | 280 | 4.8 | 6.4 | 0.00 | 0.00 | 0.00 | 46 | 909.1 |
| 20260507144250 | 8 | 333 | 9.7 | 14.5 | 0.00 | 0.00 | 0.00 | 46 | 909.3 |
| 20260507143746 | 8 | 252 | 6.4 | 9.7 | 0.00 | 0.00 | 0.00 | 46 | 909.5 |
| 20260507143244 | 8 | 279 | 9.7 | 12.9 | 0.00 | 0.00 | 0.00 | 47 | 909.1 |
| 20260507142740 | 8 | 188 | 9.7 | 17.7 | 0.00 | 0.00 | 0.00 | 47 | 909.4 |
| 20260507142237 | 8 | 282 | 6.4 | 9.7 | 0.00 | 0.00 | 0.00 | 48 | 909.1 |
| 20260507141733 | 8 | 301 | 9.7 | 14.5 | 0.00 | 0.00 | 0.00 | 48 | 909.1 |
| 20260507141230 | 8 | 327 | 8.0 | 9.7 | 0.00 | 0.00 | 0.00 | 48 | 908.8 |
| 20260507140726 | 8 | 244 | 12.9 | 14.5 | 0.00 | 0.00 | 0.00 | 48 | 908.9 |
| 20260507140224 | 7 | 59 | 6.4 | 9.7 | 0.00 | 0.00 | 0.00 | 49 | 908.8 |
| 20260507135721 | 7 | 38 | 11.3 | 14.5 | 0.00 | 0.00 | 0.00 | 49 | 908.6 |
| 20260507135218 | 7 | 247 | 6.4 | 8.0 | 0.00 | 0.00 | 0.00 | 50 | 908.7 |
| 20260507134714 | 7 | 293 | 6.4 | 8.0 | 0.00 | 0.00 | 0.00 | 51 | 908.8 |
| 20260507134211 | 7 | 349 | 11.3 | 14.5 | 0.00 | 0.00 | 0.00 | 51 | 908.6 |
| 20260507133707 | 6 | 225 | 3.2 | 6.4 | 0.00 | 0.00 | 0.00 | 52 | 908.7 |
| 20260507133204 | 6 | 262 | 6.4 | 9.7 | 0.00 | 0.00 | 0.00 | 52 | 908.6 |
| 20260507132701 | 6 | 266 | 11.3 | 14.5 | 0.00 | 0.00 | 0.00 | 52 | 908.4 |
| 20260507132157 | 6 | 328 | 8.0 | 12.9 | 0.00 | 0.00 | 0.00 | 52 | 908.6 |
| 20260507131654 | 6 | 312 | 4.8 | 6.4 | 0.00 | 0.00 | 0.00 | 52 | 908.5 |
| 20260507131152 | 6 | 244 | 8.0 | 9.7 | 0.00 | 0.00 | 0.00 | 51 | 908.4 |
| 20260507130648 | 6 | 275 | 11.3 | 14.5 | 0.00 | 0.00 | 0.00 | 50 | 908.2 |
| 20260507130146 | 6 | 18 | 8.0 | 12.9 | 0.00 | 0.00 | 0.00 | 50 | 908.1 |
| 20260507125644 | 6 | 239 | 9.7 | 14.5 | 0.00 | 0.00 | 0.00 | 50 | 907.9 |
| 20260507125142 | 6 | 201 | 9.7 | 14.5 | 0.00 | 0.00 | 0.00 | 51 | 908.3 |
| 20260507124638 | 6 | 308 | 8.0 | 16.1 | 0.00 | 0.00 | 0.00 | 51 | 907.9 |
| 20260507124136 | 6 | 294 | 8.0 | 9.7 | 0.00 | 0.00 | 0.00 | 51 | 907.9 |
| 20260507123634 | 6 | 310 | 8.0 | 14.5 | 0.00 | 0.00 | 0.00 | 51 | 908.1 |
| 20260507123130 | 6 | 228 | 8.0 | 12.9 | 0.00 | 0.00 | 0.00 | 51 | 908.1 |
| 20260507122626 | 6 | 263 | 11.3 | 17.7 | 0.00 | 0.00 | 0.00 | 52 | 907.8 |
| 20260507122122 | 6 | 264 | 9.7 | 14.5 | 0.00 | 0.00 | 0.00 | 53 | 907.7 |
| 20260507121618 | 6 | 239 | 11.3 | 20.9 | 0.00 | 0.00 | 0.00 | 52 | 907.9 |
| 20260507121114 | 6 | 286 | 8.0 | 9.7 | 0.00 | 0.00 | 0.00 | 52 | 907.8 |
| 20260507120610 | 5 | 241 | 9.7 | 22.5 | 0.00 | 0.00 | 0.00 | 53 | 907.6 |
| 20260507120107 | 5 | 349 | 8.0 | 12.9 | 0.00 | 0.00 | 0.00 | 54 | 907.8 |
| 20260507115603 | 5 | 289 | 8.0 | 12.9 | 0.00 | 0.00 | 0.00 | 54 | 907.8 |
| 20260507115059 | 5 | 271 | 14.5 | 16.1 | 0.00 | 0.00 | 0.00 | 54 | 907.6 |
| 20260507114555 | 5 | 326 | 4.8 | 8.0 | 0.00 | 0.00 | 0.00 | 54 | 907.8 |
| 20260507114053 | 5 | 3 | 11.3 | 17.7 | 0.00 | 0.00 | 0.00 | 54 | 907.9 |
| 20260507113549 | 5 | 299 | 6.4 | 8.0 | 0.00 | 0.00 | 0.00 | 53 | 907.9 |
| 20260507113047 | 5 | 297 | 6.4 | 8.0 | 0.00 | 0.00 | 0.00 | 52 | 907.8 |
| 20260507112545 | 5 | 272 | 14.5 | 17.7 | 0.00 | 0.00 | 0.00 | 52 | 907.7 |
| 20260507112041 | 5 | 77 | 4.8 | 6.4 | 0.00 | 0.00 | 0.00 | 53 | 907.6 |
| 20260507111538 | 5 | 55 | 4.8 | 6.4 | 0.00 | 0.00 | 0.00 | 53 | 907.4 |
| 20260507111035 | 5 | 355 | 8.0 | 16.1 | 0.00 | 0.00 | 0.00 | 52 | 907.5 |
| 20260507110531 | 5 | 268 | 11.3 | 17.7 | 0.00 | 0.00 | 0.00 | 52 | 907.4 |
| 20260507110028 | 5 | 249 | 6.4 | 8.0 | 0.00 | 0.00 | 0.00 | 52 | 907.6 |
| 20260507105525 | 5 | 258 | 11.3 | 16.1 | 0.00 | 0.00 | 0.00 | 52 | 907.7 |
| 20260507105020 | 5 | 226 | 9.7 | 16.1 | 0.00 | 0.00 | 0.00 | 51 | 907.6 |
| 20260507104518 | 5 | 295 | 11.3 | 20.9 | 0.00 | 0.00 | 0.00 | 51 | 907.7 |
| 20260507104015 | 5 | 311 | 12.9 | 16.1 | 0.00 | 0.00 | 0.00 | 51 | 907.5 |
| 20260507103511 | 5 | 27 | 4.8 | 6.4 | 0.00 | 0.00 | 0.00 | 51 | 907.4 |
| 20260507103007 | 5 | 228 | 11.3 | 16.1 | 0.00 | 0.00 | 0.00 | 51 | 907.6 |
| 20260507102504 | 5 | 221 | 9.7 | 14.5 | 0.00 | 0.00 | 0.00 | 51 | 907.6 |
| 20260507102000 | 5 | 260 | 4.8 | 6.4 | 0.00 | 0.00 | 0.00 | 52 | 907.4 |
| 20260507101455 | 5 | 9 | 14.5 | 20.9 | 0.00 | 0.00 | 0.00 | 52 | 907.5 |
| 20260507100952 | 5 | 56 | 4.8 | 6.4 | 0.00 | 0.00 | 0.00 | 52 | 907.5 |
| 20260507100450 | 5 | 340 | 11.3 | 16.1 | 0.00 | 0.00 | 0.00 | 51 | 907.4 |
| 20260507095948 | 5 | 1 | 6.4 | 9.7 | 0.00 | 0.00 | 0.00 | 51 | 907.5 |
| 20260507095445 | 5 | 258 | 14.5 | 20.9 | 0.00 | 0.00 | 0.00 | 51 | 907.6 |
| 20260507094942 | 5 | 292 | 11.3 | 14.5 | 0.00 | 0.00 | 0.00 | 51 | 907.5 |
| 20260507094438 | 5 | 282 | 6.4 | 8.0 | 0.00 | 0.00 | 0.00 | 51 | 907.6 |
| 20260507093935 | 5 | 200 | 4.8 | 6.4 | 0.00 | 0.00 | 0.00 | 51 | 908.1 |
| 20260507093433 | 5 | 306 | 11.3 | 16.1 | 0.00 | 0.00 | 0.00 | 51 | 907.8 |
| 20260507092931 | 5 | 207 | 9.7 | 12.9 | 0.00 | 0.00 | 0.00 | 51 | 907.9 |
| 20260507092427 | 5 | 273 | 8.0 | 9.7 | 0.00 | 0.00 | 0.00 | 51 | 907.8 |
| 20260507091924 | 5 | 273 | 4.8 | 8.0 | 0.00 | 0.00 | 0.00 | 50 | 907.7 |
| 20260507091420 | 5 | 271 | 8.0 | 9.7 | 0.00 | 0.00 | 0.00 | 50 | 907.9 |
| 20260507090916 | 5 | 274 | 9.7 | 16.1 | 0.00 | 0.00 | 0.00 | 51 | 908.1 |
| 20260507090412 | 5 | 276 | 9.7 | 14.5 | 0.00 | 0.00 | 0.00 | 50 | 907.7 |
| 20260507085909 | 5 | 8 | 9.7 | 12.9 | 0.00 | 0.00 | 0.00 | 51 | 907.8 |
| 20260507085406 | 5 | 285 | 8.0 | 14.5 | 0.00 | 0.00 | 0.00 | 51 | 908.1 |
| 20260507084903 | 5 | 269 | 9.7 | 12.9 | 0.00 | 0.00 | 0.00 | 50 | 907.8 |
| 20260507084400 | 5 | 285 | 9.7 | 16.1 | 0.00 | 0.00 | 0.00 | 50 | 907.8 |
| 20260507083857 | 5 | 281 | 11.3 | 14.5 | 0.00 | 0.00 | 0.00 | 50 | 907.7 |
| 20260507083353 | 5 | 17 | 8.0 | 17.7 | 0.00 | 0.00 | 0.00 | 51 | 907.8 |
| 20260507082850 | 5 | 296 | 12.9 | 17.7 | 0.00 | 0.00 | 0.00 | 51 | 907.8 |
| 20260507082345 | 5 | 263 | 11.3 | 14.5 | 0.00 | 0.00 | 0.00 | 51 | 907.7 |
| 20260507081843 | 5 | 3 | 6.4 | 12.9 | 0.00 | 0.00 | 0.00 | 51 | 907.9 |
| 20260507081339 | 5 | 299 | 8.0 | 8.0 | 0.00 | 0.00 | 0.00 | 51 | 908.1 |
| 20260507080836 | 5 | 248 | 6.4 | 9.7 | 0.00 | 0.00 | 0.00 | 51 | 907.7 |
| 20260507080332 | 5 | 275 | 14.5 | 20.9 | 0.00 | 0.00 | 0.00 | 51 | 907.9 |
| 20260507075827 | 5 | 222 | 9.7 | 14.5 | 0.00 | 0.00 | 0.00 | 51 | 907.9 |
| 20260507075324 | 5 | 229 | 8.0 | 16.1 | 0.00 | 0.00 | 0.00 | 50 | 907.9 |
| 20260507074820 | 5 | 300 | 9.7 | 14.5 | 0.00 | 0.00 | 0.00 | 50 | 908.1 |
| 20260507074318 | 5 | 202 | 11.3 | 14.5 | 0.00 | 0.00 | 0.00 | 49 | 907.8 |
| 20260507073815 | 5 | 264 | 6.4 | 8.0 | 0.00 | 0.00 | 0.00 | 49 | 907.9 |
| 20260507073311 | 5 | 279 | 4.8 | 6.4 | 0.00 | 0.00 | 0.00 | 49 | 908.1 |
| 20260507072809 | 5 | 256 | 9.7 | 9.7 | 0.00 | 0.00 | 0.00 | 49 | 907.8 |
| 20260507072307 | 5 | 263 | 9.7 | 17.7 | 0.00 | 0.00 | 0.00 | 49 | 907.9 |
| 20260507071803 | 5 | 281 | 14.5 | 17.7 | 0.00 | 0.00 | 0.00 | 49 | 908.1 |
| 20260507071300 | 5 | 253 | 8.0 | 9.7 | 0.00 | 0.00 | 0.00 | 50 | 908.1 |
| 20260507070756 | 5 | 307 | 8.0 | 16.1 | 0.00 | 0.00 | 0.00 | 51 | 908.2 |
| 20260507070254 | 5 | 271 | 8.0 | 12.9 | 0.00 | 0.00 | 0.00 | 51 | 908.1 |
| 20260507065750 | 4 | 251 | 6.4 | 14.5 | 0.00 | 0.00 | 0.00 | 51 | 908.2 |
| 20260507065247 | 4 | 302 | 8.0 | 12.9 | 0.00 | 0.00 | 0.00 | 52 | 908.3 |
| 20260507064744 | 4 | 270 | 8.0 | 14.5 | 0.00 | 0.00 | 0.00 | 52 | 908.4 |
| 20260507064243 | 4 | 36 | 3.2 | 6.4 | 0.00 | 0.00 | 0.00 | 53 | 908.4 |
| 20260507063740 | 4 | 256 | 9.7 | 17.7 | 0.00 | 0.00 | 0.00 | 53 | 908.6 |
| 20260507063237 | 4 | 341 | 8.0 | 9.7 | 0.00 | 0.00 | 0.00 | 54 | 908.5 |
| 20260507062734 | 3 | 21 | 9.7 | 12.9 | 0.00 | 0.00 | 0.00 | 55 | 908.6 |
| 20260507062231 | 3 | 230 | 8.0 | 9.7 | 0.00 | 0.00 | 0.00 | 56 | 908.6 |
| 20260507061730 | 3 | 295 | 8.0 | 9.7 | 0.00 | 0.00 | 0.00 | 55 | 908.7 |
| 20260507061227 | 3 | 220 | 6.4 | 9.7 | 0.00 | 0.00 | 0.00 | 57 | 908.8 |
| 20260507060725 | 3 | 282 | 4.8 | 6.4 | 0.00 | 0.00 | 0.00 | 59 | 909.0 |
| 20260507060221 | 2 | 332 | 3.2 | 4.8 | 0.00 | 0.00 | 0.00 | 61 | 909.0 |
| 20260507055717 | 0 | 210 | 6.4 | 9.7 | 0.00 | 0.69 | 0.69 | 73 | 908.8 |
| 20260507055213 | 0 | 204 | 4.8 | 6.4 | 0.00 | 0.69 | 0.69 | 79 | 909.1 |
| 20260507054709 | 0 | 226 | 3.2 | 4.8 | 0.00 | 0.69 | 0.69 | 79 | 908.9 |
| 20260507054206 | 0 | 194 | 4.8 | 4.8 | 0.00 | 0.69 | 0.69 | 79 | 909.5 |
| 20260507053704 | 0 | 208 | 6.4 | 8.0 | 0.00 | 0.69 | 0.69 | 79 | 908.9 |
| 20260507053202 | 0 | 190 | 3.2 | 6.4 | 0.00 | 0.69 | 0.69 | 80 | 909.3 |
| 20260507052700 | 0 | 192 | 9.7 | 12.9 | 0.00 | 0.69 | 0.69 | 80 | 909.3 |
| 20260507052155 | 0 | 205 | 12.9 | 14.5 | 0.00 | 0.69 | 0.69 | 81 | 909.4 |
| 20260507051654 | 0 | 205 | 16.1 | 17.7 | 0.00 | 0.69 | 0.69 | 81 | 909.4 |
| 20260507051150 | 0 | 209 | 11.3 | 12.9 | 0.00 | 0.69 | 0.69 | 81 | 909.1 |
| 20260507050647 | 0 | 243 | 8.0 | 9.7 | 0.00 | 0.69 | 0.69 | 81 | 909.4 |
| 20260507050144 | 0 | 209 | 8.0 | 9.7 | 0.00 | 0.69 | 0.69 | 81 | 909.3 |
| 20260507045641 | 0 | 191 | 4.8 | 6.4 | 0.00 | 0.69 | 0.69 | 81 | 909.4 |
| 20260507045137 | 0 | 207 | 8.0 | 9.7 | 0.00 | 0.69 | 0.69 | 81 | 909.0 |
| 20260507044634 | 0 | 230 | 11.3 | 14.5 | 0.00 | 0.69 | 0.69 | 80 | 909.4 |
| 20260507044131 | 0 | 211 | 8.0 | 12.9 | 0.00 | 0.69 | 0.69 | 80 | 909.6 |
| 20260507043627 | 0 | 232 | 8.0 | 8.0 | 0.00 | 0.69 | 0.69 | 80 | 909.4 |
| 20260507043124 | 0 | 209 | 6.4 | 8.0 | 0.00 | 0.69 | 0.69 | 79 | 909.4 |
| 20260507042620 | 0 | 221 | 4.8 | 6.4 | 0.00 | 0.69 | 0.69 | 79 | 909.4 |
| 20260507042115 | 0 | 202 | 17.7 | 20.9 | 0.00 | 0.69 | 0.69 | 79 | 909.1 |
| 20260507041613 | 0 | 210 | 14.5 | 16.1 | 0.00 | 0.69 | 0.69 | 78 | 909.1 |
| 20260507041109 | 1 | 230 | 11.3 | 14.5 | 0.00 | 0.69 | 0.69 | 77 | 909.0 |
| 20260507040607 | 1 | 226 | 12.9 | 17.7 | 0.00 | 0.69 | 0.69 | 77 | 909.6 |
| 20260507035559 | 1 | 197 | 14.5 | 16.1 | 0.00 | 0.69 | 0.69 | 77 | 909.4 |
| 20260507035055 | 1 | 194 | 16.1 | 17.7 | 0.00 | 0.69 | 0.69 | 76 | 909.6 |
| 20260507034552 | 1 | 222 | 12.9 | 14.5 | 0.00 | 0.69 | 0.69 | 77 | 909.4 |
| 20260507034050 | 1 | 218 | 11.3 | 16.1 | 0.00 | 0.69 | 0.69 | 76 | 909.6 |
| 20260507033548 | 1 | 207 | 14.5 | 17.7 | 0.00 | 0.69 | 0.69 | 76 | 909.4 |
| 20260507033044 | 1 | 206 | 14.5 | 17.7 | 0.00 | 0.69 | 0.69 | 76 | 909.5 |
| 20260507032541 | 1 | 217 | 8.0 | 9.7 | 0.00 | 0.69 | 0.69 | 76 | 909.6 |
| 20260507032038 | 1 | 179 | 11.3 | 12.9 | 0.00 | 0.69 | 0.69 | 76 | 909.5 |
| 20260507031534 | 1 | 200 | 12.9 | 16.1 | 0.00 | 0.69 | 0.69 | 77 | 909.6 |
| 20260507031031 | 1 | 203 | 8.0 | 8.0 | 0.00 | 0.69 | 0.69 | 77 | 909.6 |
| 20260507030528 | 1 | 220 | 9.7 | 9.7 | 0.00 | 0.69 | 0.69 | 77 | 909.5 |
| 20260507030026 | 1 | 217 | 6.4 | 9.7 | 0.00 | 0.69 | 0.69 | 76 | 909.6 |
| 20260507025523 | 1 | 208 | 9.7 | 9.7 | 0.00 | 0.69 | 0.69 | 76 | 909.6 |
| 20260507025020 | 1 | 209 | 8.0 | 8.0 | 0.00 | 0.69 | 0.69 | 76 | 909.5 |
| 20260507024518 | 1 | 204 | 9.7 | 9.7 | 0.00 | 0.69 | 0.69 | 76 | 909.6 |
| 20260507024014 | 1 | 216 | 14.5 | 16.1 | 0.00 | 0.69 | 0.69 | 75 | 909.6 |
| 20260507023510 | 1 | 223 | 14.5 | 17.7 | 0.00 | 0.69 | 0.69 | 75 | 909.5 |
| 20260507023008 | 1 | 199 | 9.7 | 12.9 | 0.00 | 0.69 | 0.69 | 75 | 909.4 |
| 20260507022505 | 1 | 208 | 11.3 | 14.5 | 0.00 | 0.69 | 0.69 | 74 | 909.6 |
| 20260507022000 | 1 | 216 | 11.3 | 14.5 | 0.00 | 0.69 | 0.69 | 73 | 909.4 |
| 20260507021455 | 1 | 215 | 6.4 | 8.0 | 0.00 | 0.69 | 0.69 | 74 | 909.5 |
| 20260507020953 | 1 | 208 | 12.9 | 14.5 | 0.00 | 0.69 | 0.69 | 73 | 909.4 |
| 20260507020450 | 1 | 221 | 8.0 | 9.7 | 0.00 | 0.69 | 0.69 | 73 | 909.6 |
| 20260507015947 | 1 | 220 | 8.0 | 8.0 | 0.00 | 0.69 | 0.69 | 73 | 909.6 |
| 20260507015445 | 1 | 212 | 8.0 | 8.0 | 0.00 | 0.69 | 0.69 | 72 | 909.6 |
| 20260507014942 | 1 | 220 | 11.3 | 12.9 | 0.00 | 0.69 | 0.69 | 71 | 909.8 |
| 20260507014439 | 1 | 212 | 11.3 | 14.5 | 0.00 | 0.69 | 0.69 | 72 | 909.6 |
| 20260507013935 | 1 | 176 | 9.7 | 14.5 | 0.00 | 0.69 | 0.69 | 73 | 909.4 |
| 20260507013432 | 1 | 200 | 6.4 | 8.0 | 0.00 | 0.69 | 0.69 | 73 | 909.7 |
| 20260507012929 | 1 | 233 | 11.3 | 14.5 | 0.00 | 0.69 | 0.69 | 73 | 909.9 |
| 20260507012426 | 1 | 218 | 11.3 | 14.5 | 0.00 | 0.69 | 0.69 | 73 | 909.8 |
| 20260507011922 | 1 | 222 | 12.9 | 16.1 | 0.00 | 0.69 | 0.69 | 72 | 909.8 |
| 20260507011420 | 2 | 219 | 11.3 | 17.7 | 0.00 | 0.69 | 0.69 | 71 | 909.8 |
| 20260507010919 | 2 | 219 | 14.5 | 14.5 | 0.00 | 0.69 | 0.69 | 71 | 909.8 |
| 20260507010415 | 2 | 204 | 11.3 | 17.7 | 0.00 | 0.69 | 0.69 | 69 | 909.8 |
| 20260507005912 | 2 | 217 | 16.1 | 20.9 | 0.00 | 0.69 | 0.69 | 66 | 909.9 |
| 20260507005409 | 2 | 225 | 11.3 | 14.5 | 0.00 | 0.69 | 0.69 | 67 | 909.8 |
| 20260507004906 | 2 | 200 | 12.9 | 16.1 | 0.00 | 0.69 | 0.69 | 67 | 909.9 |
| 20260507004403 | 2 | 220 | 4.8 | 8.0 | 0.00 | 0.69 | 0.69 | 66 | 909.6 |
| 20260507003900 | 2 | 217 | 8.0 | 9.7 | 0.00 | 0.69 | 0.69 | 67 | 909.5 |
| 20260507003355 | 2 | 227 | 11.3 | 12.9 | 0.00 | 0.69 | 0.69 | 66 | 909.8 |
| 20260507002851 | 2 | 207 | 14.5 | 16.1 | 0.00 | 0.69 | 0.69 | 65 | 909.8 |
| 20260507002347 | 2 | 204 | 12.9 | 14.5 | 0.00 | 0.69 | 0.69 | 65 | 909.7 |
| 20260507001844 | 2 | 220 | 14.5 | 20.9 | 0.00 | 0.69 | 0.69 | 64 | 909.8 |
| 20260507001341 | 2 | 203 | 12.9 | 16.1 | 0.00 | 0.69 | 0.69 | 65 | 910.0 |
| 20260507000837 | 2 | 207 | 14.5 | 20.9 | 0.00 | 0.69 | 0.69 | 64 | 909.9 |
| 20260507000335 | 2 | 223 | 17.7 | 24.1 | 0.00 | 0.69 | 0.69 | 64 | 910.1 |
| 20260506235830 | 2 | 213 | 14.5 | 17.7 | 0.00 | 0.69 | 0.69 | 65 | 909.9 |
| 20260506235326 | 2 | 201 | 17.7 | 20.9 | 0.00 | 0.69 | 0.69 | 65 | 910.0 |
| 20260506234822 | 2 | 217 | 11.3 | 12.9 | 0.00 | 0.69 | 0.69 | 65 | 910.2 |
| 20260506234320 | 3 | 205 | 8.0 | 9.7 | 0.00 | 0.69 | 0.69 | 63 | 910.3 |
| 20260506233818 | 3 | 225 | 9.7 | 9.7 | 0.00 | 0.69 | 0.69 | 63 | 910.3 |
| 20260506233313 | 2 | 219 | 9.7 | 12.9 | 0.00 | 0.69 | 0.69 | 62 | 910.2 |
| 20260506232811 | 2 | 210 | 14.5 | 17.7 | 0.00 | 0.69 | 0.69 | 63 | 910.5 |
| 20260506232306 | 2 | 240 | 9.7 | 12.9 | 0.00 | 0.69 | 0.69 | 63 | 910.2 |
| 20260506231803 | 2 | 207 | 9.7 | 9.7 | 0.00 | 0.69 | 0.69 | 63 | 910.3 |
| 20260506231301 | 2 | 214 | 12.9 | 14.5 | 0.00 | 0.69 | 0.69 | 63 | 910.1 |
| 20260506230758 | 2 | 201 | 8.0 | 9.7 | 0.00 | 0.69 | 0.69 | 63 | 910.6 |
| 20260506230255 | 2 | 213 | 12.9 | 16.1 | 0.00 | 0.69 | 0.69 | 64 | 910.5 |
| 20260506225751 | 3 | 219 | 11.3 | 12.9 | 0.00 | 0.69 | 0.69 | 62 | 910.7 |
| 20260506225248 | 2 | 206 | 9.7 | 12.9 | 0.00 | 0.69 | 0.69 | 62 | 910.5 |
| 20260506224745 | 2 | 196 | 8.0 | 8.0 | 0.00 | 0.69 | 0.69 | 63 | 910.5 |
| 20260506224243 | 2 | 228 | 12.9 | 16.1 | 0.00 | 0.69 | 0.69 | 61 | 910.7 |
| 20260506223738 | 2 | 207 | 14.5 | 16.1 | 0.00 | 0.69 | 0.69 | 62 | 910.6 |
| 20260506223234 | 2 | 218 | 11.3 | 14.5 | 0.00 | 0.69 | 0.69 | 63 | 910.8 |
| 20260506222731 | 2 | 167 | 8.0 | 8.0 | 0.00 | 0.69 | 0.69 | 63 | 910.5 |
| 20260506222226 | 2 | 201 | 12.9 | 14.5 | 0.00 | 0.69 | 0.69 | 62 | 910.6 |
| 20260506221725 | 2 | 169 | 11.3 | 14.5 | 0.00 | 0.69 | 0.69 | 63 | 910.6 |
| 20260506221223 | 2 | 206 | 11.3 | 14.5 | 0.00 | 0.69 | 0.69 | 63 | 910.5 |
| 20260506220720 | 2 | 199 | 11.3 | 12.9 | 0.00 | 0.69 | 0.69 | 63 | 910.5 |
| 20260506220214 | 2 | 215 | 9.7 | 9.7 | 0.00 | 0.69 | 0.69 | 65 | 910.6 |
| 20260506215711 | 2 | 212 | 12.9 | 14.5 | 0.00 | 0.69 | 0.69 | 64 | 910.8 |
| 20260506215207 | 2 | 189 | 8.0 | 9.7 | 0.00 | 0.69 | 0.69 | 65 | 910.8 |
| 20260506214703 | 2 | 219 | 11.3 | 14.5 | 0.00 | 0.69 | 0.69 | 65 | 910.8 |
| 20260506214201 | 2 | 198 | 8.0 | 9.7 | 0.00 | 0.69 | 0.69 | 64 | 911.1 |
| 20260506213659 | 2 | 225 | 6.4 | 8.0 | 0.00 | 0.69 | 0.69 | 66 | 911.1 |
| 20260506213156 | 2 | 205 | 14.5 | 22.5 | 0.00 | 0.69 | 0.69 | 64 | 911.0 |
| 20260506212653 | 2 | 217 | 9.7 | 9.7 | 0.00 | 0.69 | 0.69 | 63 | 911.1 |
| 20260506212148 | 1 | 222 | 8.0 | 12.9 | 0.00 | 0.69 | 0.69 | 64 | 911.3 |
| 20260506211644 | 1 | 208 | 9.7 | 12.9 | 0.00 | 0.69 | 0.69 | 63 | 911.3 |
| 20260506211141 | 1 | 209 | 9.7 | 12.9 | 0.00 | 0.69 | 0.69 | 63 | 911.2 |
| 20260506210638 | 1 | 185 | 11.3 | 12.9 | 0.00 | 0.69 | 0.69 | 64 | 911.2 |
| 20260506210134 | 1 | 212 | 11.3 | 12.9 | 0.00 | 0.69 | 0.69 | 64 | 911.6 |
| 20260506205632 | 1 | 206 | 6.4 | 12.9 | 0.13 | 0.69 | 0.69 | 63 | 911.7 |
| 20260506205126 | 2 | 190 | 9.7 | 12.9 | 0.30 | 0.69 | 0.69 | 60 | 911.3 |
| 20260506204625 | 1 | 180 | 8.0 | 9.7 | 0.18 | 0.66 | 0.66 | 61 | 911.3 |
| 20260506204121 | 1 | 197 | 8.0 | 9.7 | 0.13 | 0.64 | 0.64 | 60 | 911.8 |
| 20260506203619 | 1 | 192 | 9.7 | 14.5 | 0.30 | 0.64 | 0.64 | 61 | 911.8 |
| 20260506203115 | 1 | 190 | 8.0 | 9.7 | 0.30 | 0.61 | 0.61 | 62 | 911.8 |
| 20260506202614 | 1 | 188 | 9.7 | 12.9 | 0.13 | 0.58 | 0.58 | 61 | 911.7 |
| 20260506202110 | 1 | 193 | 9.7 | 9.7 | 0.36 | 0.56 | 0.56 | 63 | 911.8 |
| 20260506201607 | 1 | 186 | 8.0 | 8.0 | 0.36 | 0.56 | 0.56 | 62 | 911.6 |
| 20260506201103 | 1 | 190 | 8.0 | 9.7 | 0.13 | 0.51 | 0.51 | 62 | 911.8 |
| 20260506200600 | 1 | 179 | 8.0 | 12.9 | 0.18 | 0.48 | 0.48 | 60 | 911.9 |
| 20260506200056 | 1 | 163 | 9.7 | 12.9 | 0.18 | 0.48 | 0.48 | 58 | 911.7 |
| 20260506195553 | 1 | 198 | 9.7 | 9.7 | 0.00 | 0.46 | 0.46 | 60 | 912.0 |
| 20260506195049 | 1 | 208 | 8.0 | 9.7 | 0.13 | 0.46 | 0.46 | 60 | 911.9 |
| 20260506194548 | 1 | 179 | 9.7 | 12.9 | 0.13 | 0.46 | 0.46 | 60 | 912.0 |
| 20260506194043 | 1 | 172 | 6.4 | 8.0 | 0.18 | 0.43 | 0.43 | 61 | 912.1 |
| 20260506193541 | 1 | 210 | 9.7 | 12.9 | 0.30 | 0.43 | 0.43 | 55 | 911.9 |
| 20260506193038 | 1 | 206 | 11.3 | 12.9 | 0.13 | 0.41 | 0.41 | 58 | 912.1 |
| 20260506192535 | 1 | 207 | 9.7 | 9.7 | 0.18 | 0.38 | 0.38 | 57 | 911.8 |